Location: ???????
(55.5931°N, 39.3286°E)
Time: 08:33:52
(UTC+00:00)

S3M - Visible Passes

Search period start: 24 July 2024 00:00
Search period end: 03 August 2024 00:00
Orbit: 948 x 1004 km, 83.0° (Epoch: 23 July)

Date Brightness Start Highest point End Pass type
(mag) Time Alt. Az. Time Alt. Az. Time Alt. Az.
28 Jul 7.2 00:21:29 10° E 00:22:36 10° ENE 00:23:42 10° ENE visible
01 Aug 6.6 00:15:42 10° ESE 00:19:09 16° ENE 00:22:35 10° NE visible
02 Aug 6.3 00:39:23 10° SE 00:44:15 25° E 00:49:05 10° NNE visible
